period_start,C,m1,H,J0,J1,J2,J3,J4,J5,JA,JB,JC,JD,JJ,JK,JN,#
2014-06-22 00:02:51,0.00,0.31,0.00,22.61,27.02,29.46,9.50,38.77,1010.76,2042.00,3342.00,3240.01,3521.00,499.33,493.89,24.52,0000 0000 0000 0000 000000
2014-06-22 00:07:52,0.00,0.31,0.00,22.62,27.02,29.43,9.55,38.49,1010.76,2042.00,3342.00,3240.00,3520.98,500.03,494.43,24.57,0000 0000 0000 0000 000000
2014-06-22 00:12:53,-0.00,0.31,0.00,22.61,27.02,29.44,9.50,38.57,1010.76,2042.01,3342.00,3240.00,3520.98,500.33,494.82,24.61,0000 0000 0000 0000 000000
2014-06-22 00:17:54,0.00,0.31,0.00,22.67,27.02,29.44,9.51,38.56,1010.76,2042.00,3342.00,3240.00,3520.96,499.43,493.97,24.65,0000 0000 0000 0000 000000
2014-06-22 00:22:55,0.00,0.31,0.00,22.64,27.02,29.44,9.50,38.57,1010.76,2042.00,3341.99,3240.00,3520.96,499.93,494.35,24.69,0000 0000 0000 0000 000000
2014-06-22 00:27:56,0.01,0.31,0.00,22.64,27.03,29.44,9.57,38.24,1010.78,2042.00,3341.93,3239.99,3520.51,500.13,494.82,24.73,0000 0000 0000 0000 000000
2014-06-22 00:32:58,0.01,0.31,0.00,22.65,27.04,29.45,9.60,38.43,1010.76,2042.00,3341.41,3239.93,3520.11,500.39,494.70,24.77,0000 0000 0000 0000 000000
2014-06-22 00:37:59,0.03,0.32,0.00,22.64,27.05,29.45,9.55,38.41,1010.77,2042.00,3341.03,3239.20,3520.00,500.52,494.84,24.82,0000 0000 0000 0000 000000
2014-06-22 00:43:00,0.00,0.32,0.00,22.62,27.05,29.47,9.56,38.58,1010.76,2042.00,3341.00,3239.02,3520.00,500.01,494.52,24.86,0000 0000 0000 0000 000000
2014-06-22 00:48:01,0.01,0.32,0.00,22.65,27.05,29.47,9.50,38.14,1010.76,2042.00,3340.82,3239.00,3519.86,500.30,494.68,24.90,0000 0000 0000 0000 000000
2014-06-22 00:53:02,0.02,0.32,0.00,22.65,27.05,29.47,9.54,37.94,1010.76,2042.00,3340.13,3238.96,3519.15,500.36,494.68,24.94,0000 0000 0000 0000 000000
2014-06-22 00:58:03,0.01,0.32,0.00,22.61,27.05,29.48,9.56,38.40,1010.74,2042.00,3340.00,3238.55,3519.00,499.87,494.29,24.98,0000 0000 0000 0000 000000
2014-06-22 01:03:04,0.01,0.32,0.00,22.60,27.06,29.48,9.54,38.65,1010.76,2042.00,3340.00,3238.13,3519.00,499.96,494.45,25.03,0000 0000 0000 0000 000000
2014-06-22 01:08:05,0.00,0.32,0.00,22.62,27.06,29.48,9.53,38.55,1010.74,2042.00,3339.97,3238.02,3519.00,499.96,494.43,25.07,0000 0000 0000 0000 000000
2014-06-22 01:13:07,0.00,0.32,0.00,22.65,27.07,29.48,9.50,38.23,1010.71,2042.00,3339.87,3238.00,3518.99,499.69,494.09,25.11,0000 0000 0000 0000 000000
2014-06-22 01:18:08,0.01,0.32,0.00,22.64,27.07,29.49,9.57,38.22,1010.72,2042.00,3339.30,3238.00,3518.96,500.26,494.69,25.15,0000 0000 0000 0000 000000
2014-06-22 01:23:09,0.02,0.32,0.00,22.63,27.07,29.49,9.58,37.92,1010.67,2042.00,3339.01,3237.84,3518.15,500.24,494.55,25.19,0000 0000 0000 0000 000000
2014-06-22 01:28:10,0.02,0.32,0.00,22.65,27.07,29.49,9.57,38.23,1010.69,2042.00,3339.00,3237.40,3518.00,500.79,494.99,25.24,0000 0000 0000 0000 000000
2014-06-22 01:33:11,0.00,0.32,0.00,22.66,27.07,29.50,9.49,38.38,1010.65,2042.00,3338.99,3237.09,3518.00,500.09,494.39,25.28,0000 0000 0000 0000 000000
2014-06-22 01:38:12,0.01,0.32,0.00,22.66,27.07,29.49,9.57,38.77,1010.69,2042.00,3338.88,3237.01,3517.90,500.03,494.41,25.32,0000 0000 0000 0000 000000
2014-06-22 01:43:13,0.00,0.32,0.00,22.65,27.07,29.51,9.60,37.98,1010.65,2042.00,3338.47,3236.99,3517.63,500.49,494.78,25.36,0000 0000 0000 0000 000000
2014-06-22 01:48:14,0.02,0.32,0.00,22.66,27.07,29.50,9.50,37.96,1010.63,2042.00,3338.13,3236.99,3517.23,499.62,494.16,25.40,0000 0000 0000 0000 000000
2014-06-22 01:53:15,0.00,0.32,0.00,22.67,27.09,29.51,9.52,38.24,1010.74,2042.00,3338.03,3236.98,3517.06,500.08,494.48,25.44,0000 0000 0000 0000 000000
2014-06-22 01:58:16,0.00,0.32,0.00,22.65,27.09,29.51,9.49,38.48,1010.74,2042.00,3338.00,3236.91,3517.03,499.58,494.06,25.49,0000 0000 0000 0000 000000
2014-06-22 02:03:17,0.01,0.32,0.00,22.66,27.10,29.51,9.58,38.62,1010.54,2042.00,3337.98,3236.50,3517.00,500.35,494.59,25.53,0000 0000 0000 0000 000000
2014-06-22 02:08:18,0.03,0.33,0.00,22.67,27.10,29.50,9.54,38.25,1010.61,2042.00,3337.44,3236.03,3516.64,499.80,494.18,25.57,0000 0000 0000 0000 000000
2014-06-22 02:13:19,0.01,0.33,0.00,22.67,27.10,29.51,9.48,38.12,1010.72,2041.99,3337.02,3235.97,3516.07,499.88,494.10,25.61,0000 0000 0000 0000 000000
2014-06-22 02:18:20,0.00,0.33,0.00,22.69,27.10,29.51,9.51,38.02,1010.76,2041.99,3337.00,3235.92,3516.01,499.87,494.25,25.65,0000 0000 0000 0000 000000
2014-06-22 02:23:21,0.00,0.33,0.00,22.69,27.10,29.52,9.53,37.94,1010.76,2041.99,3337.00,3235.82,3516.00,499.98,494.33,25.70,0000 0000 0000 0000 000000
2014-06-22 02:28:22,0.01,0.33,0.00,22.72,27.12,29.52,9.51,37.79,1010.76,2041.99,3336.95,3235.29,3516.00,500.25,494.58,25.74,0000 0000 0000 0000 000000
2014-06-22 02:33:23,0.01,0.33,0.00,22.74,27.12,29.53,9.53,37.90,1010.76,2041.99,3336.71,3235.10,3515.99,500.07,494.32,25.78,0000 0000 0000 0000 000000
2014-06-22 02:38:24,0.01,0.33,0.00,22.75,27.12,29.53,9.58,38.20,1010.71,2041.99,3336.44,3235.05,3515.98,500.44,494.74,25.82,0000 0000 0000 0000 000000
2014-06-22 02:43:25,0.01,0.33,0.00,22.76,27.14,29.54,9.51,38.04,1010.42,2041.99,3336.06,3235.01,3515.75,500.00,494.20,25.86,0000 0000 0000 0000 000000
2014-06-22 02:48:26,0.01,0.33,0.00,22.78,27.15,29.53,9.53,37.64,1010.28,2041.99,3336.00,3235.00,3515.17,500.13,493.99,25.90,0000 0000 0000 0000 000000
2014-06-22 02:53:27,0.00,0.33,0.00,22.79,27.15,29.54,9.51,38.09,1010.27,2041.98,3335.99,3234.99,3515.02,500.30,494.11,25.95,0000 0000 0000 0000 000000
2014-06-22 02:58:28,0.01,0.33,0.00,22.82,27.16,29.55,9.56,38.86,1010.29,2041.97,3335.69,3234.81,3515.00,500.33,494.25,25.99,0000 0000 0000 0000 000000
2014-06-22 03:03:29,0.02,0.33,0.00,22.84,27.17,29.55,9.51,38.15,1010.31,2041.97,3335.19,3234.44,3514.99,499.89,493.59,26.03,0000 0000 0000 0000 000000
2014-06-22 03:08:30,0.00,0.33,0.00,22.85,27.17,29.56,9.50,37.91,1010.29,2041.94,3335.05,3234.14,3514.89,500.03,493.99,26.07,0000 0000 0000 0000 000000
2014-06-22 03:13:31,-0.00,0.33,0.00,22.87,27.20,29.57,9.51,37.98,1010.27,2041.92,3335.04,3234.03,3514.73,499.72,493.42,26.11,0000 0000 0000 0000 000000
2014-06-22 03:18:33,0.01,0.33,0.00,22.89,27.20,29.58,9.59,39.04,1010.27,2041.89,3335.00,3234.00,3514.34,500.31,494.13,26.16,0000 0000 0000 0000 000000
2014-06-22 03:23:34,-0.02,0.33,0.00,22.92,27.21,29.59,9.50,38.75,1010.27,2041.71,3335.00,3234.00,3514.03,499.60,493.24,26.20,0000 0000 0000 0000 000000
2014-06-22 03:28:35,-0.03,0.33,0.00,22.92,27.22,29.60,9.54,38.26,1010.27,2041.39,3334.93,3233.97,3514.00,500.43,494.21,26.24,0000 0000 0000 0000 000000
2014-06-22 03:33:36,-0.00,0.33,0.00,22.93,27.23,29.61,9.54,38.08,1010.27,2041.11,3334.62,3233.76,3513.98,499.79,493.61,26.28,0000 0000 0000 0000 000000
2014-06-22 03:38:37,0.02,0.33,0.00,22.97,27.25,29.61,9.50,37.86,1010.26,2041.02,3334.08,3233.19,3513.83,499.90,493.43,26.32,0000 0000 0000 0000 000000
2014-06-22 03:43:38,0.01,0.33,0.00,22.99,27.25,29.63,9.44,37.83,1010.24,2041.02,3334.00,3233.02,3513.29,499.66,493.30,26.37,0000 0000 0000 0000 000000
2014-06-22 03:48:39,0.00,0.33,0.00,23.02,27.27,29.64,9.51,38.21,1010.10,2041.03,3333.96,3233.01,3513.11,499.85,493.24,26.41,0000 0000 0000 0000 000000
2014-06-22 03:53:40,-0.00,0.33,0.00,23.02,27.27,29.65,9.49,37.99,1009.94,2041.01,3333.87,3233.00,3513.01,499.84,493.10,26.45,0000 0000 0000 0000 000000
2014-06-22 03:58:41,0.01,0.33,0.00,23.06,27.30,29.66,9.47,38.12,1009.91,2041.01,3333.40,3232.99,3512.99,499.76,493.06,26.49,0000 0000 0000 0000 000000
2014-06-22 04:03:42,0.00,0.33,0.00,23.09,27.30,29.67,9.53,37.71,1009.84,2041.01,3333.04,3232.92,3512.95,499.48,492.75,26.53,0000 0000 0000 0000 000000
2014-06-22 04:08:43,0.02,0.33,0.00,23.11,27.32,29.68,9.49,37.92,1009.78,2041.00,3332.99,3232.57,3512.74,499.81,492.99,26.57,0000 0000 0000 0000 000000
2014-06-22 04:13:44,0.02,0.33,0.00,23.12,27.33,29.69,9.60,38.88,1009.76,2041.00,3332.97,3232.05,3512.16,500.59,493.71,26.62,0000 0000 0000 0000 000000
2014-06-22 04:18:45,0.01,0.33,0.00,23.14,27.35,29.71,9.55,39.01,1009.67,2041.00,3332.58,3232.00,3512.01,500.12,493.12,26.66,0000 0000 0000 0000 000000
2014-06-22 04:23:46,0.00,0.33,0.00,23.19,27.36,29.72,9.57,39.08,1009.78,2040.99,3332.12,3232.00,3512.00,500.54,493.50,26.70,0000 0000 0000 0000 000000
2014-06-22 04:28:47,0.00,0.33,0.00,23.23,27.38,29.74,9.45,38.55,1009.78,2040.99,3332.02,3231.95,3511.99,499.59,492.68,26.74,0000 0000 0000 0000 000000
2014-06-22 04:33:48,0.03,0.33,0.00,23.24,27.40,29.74,9.52,38.81,1009.78,2040.99,3331.99,3231.58,3511.72,499.87,492.76,26.78,0000 0000 0000 0000 000000
2014-06-22 04:38:49,0.02,0.34,0.00,23.29,27.42,29.77,9.48,38.63,1009.78,2040.96,3331.85,3231.06,3511.14,500.24,493.34,26.83,0000 0000 0000 0000 000000
2014-06-22 04:43:50,-0.01,0.34,0.00,23.31,27.44,29.78,9.50,38.13,1009.78,2040.78,3331.15,3231.00,3510.99,499.92,492.78,26.87,0000 0000 0000 0000 000000
2014-06-22 04:48:51,-0.01,0.33,0.00,23.33,27.46,29.79,9.53,38.29,1009.78,2040.54,3331.01,3230.95,3510.82,500.32,493.13,26.91,0000 0000 0000 0000 000000
2014-06-22 04:53:52,-0.01,0.33,0.00,23.36,27.48,29.81,9.46,37.80,1009.78,2040.19,3330.91,3230.49,3510.16,499.65,492.65,26.95,0000 0000 0000 0000 000000
2014-06-22 04:58:53,0.01,0.33,0.00,23.40,27.50,29.84,9.43,37.51,1009.78,2040.03,3330.30,3230.03,3510.00,499.76,492.46,26.99,0000 0000 0000 0000 000000
2014-06-22 05:03:54,0.00,0.34,0.00,23.44,27.52,29.85,9.48,37.65,1009.75,2040.02,3330.00,3230.00,3509.84,500.43,492.98,27.03,0000 0000 0000 0000 000000
2014-06-22 05:08:55,0.04,0.34,0.00,23.47,27.55,29.88,9.47,38.23,1009.72,2040.00,3329.60,3229.57,3509.12,500.12,492.75,27.08,0000 0000 0000 0000 000000
2014-06-22 05:13:56,0.01,0.34,0.00,23.50,27.57,29.90,9.39,37.56,1009.75,2040.00,3329.16,3229.07,3509.00,499.83,492.30,27.12,0000 0000 0000 0000 000000
2014-06-22 05:18:57,0.00,0.34,0.00,23.54,27.60,29.93,9.50,37.96,1009.74,2040.00,3329.00,3229.00,3508.93,500.24,492.57,27.16,0000 0000 0000 0000 000000
2014-06-22 05:23:58,0.01,0.34,0.00,23.57,27.62,29.95,9.53,37.64,1009.72,2039.99,3328.92,3228.99,3508.32,500.15,492.52,27.20,0000 0000 0000 0000 000000
2014-06-22 05:28:59,0.02,0.34,0.00,23.60,27.65,29.97,9.47,37.86,1009.67,2039.98,3328.41,3228.76,3508.02,500.16,492.30,27.24,0000 0000 0000 0000 000000
2014-06-22 05:34:00,0.01,0.34,0.00,23.62,27.67,30.00,9.57,38.89,1009.71,2039.91,3327.99,3228.05,3507.93,500.20,492.35,27.29,0000 0000 0000 0000 000000
2014-06-22 05:39:01,0.01,0.34,0.00,23.64,27.70,30.02,9.48,38.49,1009.76,2039.78,3327.64,3227.97,3507.27,499.70,491.94,27.33,0000 0000 0000 0000 000000
2014-06-22 05:44:02,-0.03,0.34,0.00,23.69,27.72,30.04,9.47,37.90,1009.73,2039.16,3327.03,3227.27,3506.98,499.98,492.04,27.37,0000 0000 0000 0000 000000
2014-06-22 05:49:03,0.00,0.34,0.00,23.73,27.75,30.07,9.46,37.83,1009.61,2039.05,3326.99,3227.02,3506.69,499.87,491.94,27.41,0000 0000 0000 0000 000000
2014-06-22 05:54:04,0.01,0.34,0.00,23.76,27.78,30.10,9.48,37.46,1009.48,2039.01,3326.72,3227.00,3506.06,499.82,491.98,27.45,0000 0000 0000 0000 000000
2014-06-22 05:59:05,0.02,0.34,0.00,23.80,27.81,30.12,9.48,37.55,1009.35,2039.00,3326.11,3226.83,3505.99,499.92,491.78,27.50,0000 0000 0000 0000 000000
2014-06-22 06:04:06,0.03,0.34,0.00,23.83,27.84,30.15,9.38,37.38,1009.32,2039.00,3325.99,3226.14,3505.67,499.50,491.12,27.54,0000 0000 0000 0000 000000
2014-06-22 06:09:07,0.01,0.34,0.00,23.86,27.87,30.18,9.58,37.42,1009.31,2039.00,3325.74,3226.00,3505.09,500.09,491.79,27.58,0000 0000 0000 0000 000000
2014-06-22 06:14:08,0.01,0.34,0.00,23.91,27.90,30.21,9.47,37.42,1009.30,2038.98,3325.04,3225.97,3504.99,500.24,491.92,27.62,0000 0000 0000 0000 000000
2014-06-22 06:19:10,0.02,0.34,0.00,23.95,27.93,30.23,9.53,37.47,1009.29,2038.91,3324.99,3225.42,3504.63,499.88,491.56,27.66,0000 0000 0000 0000 000000
2014-06-22 06:24:11,-0.04,0.34,0.00,24.00,27.96,30.26,9.42,37.61,1009.29,2038.41,3324.48,3225.01,3504.02,499.74,491.11,27.71,0000 0000 0000 0000 000000
2014-06-22 06:29:12,-0.00,0.34,0.00,24.04,27.99,30.30,9.50,37.64,1009.29,2038.10,3324.01,3224.89,3503.89,500.31,491.64,27.75,0000 0000 0000 0000 000000
2014-06-22 06:34:13,0.04,0.34,0.00,24.06,28.03,30.33,9.45,37.60,1009.29,2038.01,3323.70,3224.13,3503.12,500.33,491.52,27.79,0000 0000 0000 0000 000000
2014-06-22 06:39:14,0.01,0.34,0.00,24.09,28.06,30.36,9.46,38.23,1009.29,2038.00,3323.03,3224.00,3502.95,499.92,490.96,27.83,0000 0000 0000 0000 000000
2014-06-22 06:44:15,0.05,0.35,0.00,24.10,28.09,30.39,9.38,38.53,1009.26,2038.00,3322.44,3223.47,3502.18,499.79,491.06,27.87,0000 0000 0000 0000 000000
2014-06-22 06:49:16,0.01,0.35,0.00,24.13,28.12,30.42,9.36,38.41,1009.27,2037.99,3322.00,3223.02,3501.99,499.75,491.15,27.91,0000 0000 0000 0000 000000
2014-06-22 06:54:17,0.02,0.35,0.00,24.20,28.15,30.46,9.38,38.40,1009.26,2037.97,3321.51,3222.95,3501.32,499.99,491.01,27.96,0000 0000 0000 0000 000000
2014-06-22 06:59:19,0.01,0.35,0.00,24.22,28.17,30.49,9.46,38.35,1009.22,2037.85,3321.02,3222.24,3501.00,500.63,491.39,28.00,0000 0000 0000 0000 000000
2014-06-22 07:04:20,-0.03,0.35,0.00,24.23,28.21,30.52,9.39,38.42,1008.96,2037.54,3320.59,3222.00,3500.54,499.96,490.74,28.04,0000 0000 0000 0000 000000
2014-06-22 07:09:21,-0.00,0.35,0.00,24.27,28.23,30.55,9.42,38.73,1008.86,2037.09,3320.02,3221.73,3500.01,500.06,490.72,28.08,0000 0000 0000 0000 000000
2014-06-22 07:14:22,0.02,0.35,0.00,24.30,28.26,30.58,9.40,38.47,1008.83,2037.01,3319.84,3221.06,3499.69,500.05,490.90,28.12,0000 0000 0000 0000 000000
2014-06-22 07:19:22,0.02,0.35,0.00,24.33,28.29,30.61,9.43,38.48,1008.83,2037.00,3319.11,3220.98,3499.06,500.02,490.81,28.17,0000 0000 0000 0000 000000
2014-06-22 07:24:24,0.01,0.35,0.00,24.37,28.32,30.64,9.47,38.75,1008.83,2037.00,3318.91,3220.59,3498.97,500.15,490.91,28.21,0000 0000 0000 0000 000000
2014-06-22 07:29:25,0.04,0.35,0.00,24.39,28.36,30.68,9.42,38.46,1008.83,2036.99,3318.20,3220.04,3498.32,499.87,490.32,28.25,0000 0000 0000 0000 000000
2014-06-22 07:34:26,0.00,0.35,0.00,24.41,28.38,30.71,9.42,38.29,1008.83,2036.96,3317.98,3219.96,3498.00,500.14,490.40,28.29,0000 0000 0000 0000 000000
2014-06-22 07:39:27,0.02,0.35,0.00,24.45,28.41,30.73,9.51,38.50,1008.83,2036.81,3317.52,3219.43,3497.68,500.46,490.73,28.33,0000 0000 0000 0000 000000
2014-06-22 07:44:28,-0.03,0.35,0.00,24.49,28.44,30.76,9.50,38.56,1008.84,2036.41,3317.03,3219.02,3497.07,500.17,490.64,28.38,0000 0000 0000 0000 000000
2014-06-22 07:49:29,-0.01,0.35,0.00,24.51,28.47,30.80,9.40,38.39,1008.81,2036.10,3316.60,3218.94,3496.94,499.99,490.35,28.42,0000 0000 0000 0000 000000
2014-06-22 07:54:30,0.04,0.35,0.00,24.52,28.50,30.83,9.41,38.33,1008.81,2036.01,3316.03,3218.34,3496.25,499.97,490.37,28.46,0000 0000 0000 0000 000000
2014-06-22 07:59:31,0.01,0.35,0.00,24.55,28.53,30.86,9.40,38.10,1008.80,2036.00,3315.82,3218.01,3496.00,499.99,490.23,28.50,0000 0000 0000 0000 000000
2014-06-22 08:04:32,0.02,0.35,0.00,24.60,28.56,30.89,9.47,37.98,1008.80,2036.00,3315.06,3217.93,3495.67,500.05,490.28,28.54,0000 0000 0000 0000 000000
2014-06-22 08:09:33,0.03,0.36,0.00,24.63,28.59,30.91,9.44,38.05,1008.80,2035.99,3314.97,3217.25,3495.07,500.06,490.20,28.58,0000 0000 0000 0000 000000
2014-06-22 08:14:34,0.01,0.36,0.00,24.65,28.62,30.94,9.42,37.91,1008.80,2035.95,3314.42,3217.00,3494.96,500.27,490.34,28.63,0000 0000 0000 0000 000000
2014-06-22 08:19:35,0.01,0.36,0.00,24.67,28.65,30.98,9.44,38.49,1008.80,2035.87,3314.01,3216.88,3494.39,500.05,490.10,28.67,0000 0000 0000 0000 000000
2014-06-22 08:24:37,-0.04,0.36,0.00,24.71,28.68,31.01,9.43,38.86,1008.80,2035.26,3313.54,3216.11,3494.00,500.02,490.06,28.71,0000 0000 0000 0000 000000
2014-06-22 08:29:38,0.01,0.36,0.00,24.74,28.71,31.03,9.45,38.44,1008.77,2035.08,3313.01,3215.99,3493.73,500.02,489.92,28.75,0000 0000 0000 0000 000000
2014-06-22 08:34:39,0.02,0.36,0.00,24.77,28.74,31.06,9.43,38.46,1008.52,2035.02,3312.84,3215.68,3493.05,500.40,490.14,28.79,0000 0000 0000 0000 000000
2014-06-22 08:39:41,0.03,0.36,0.00,24.77,28.77,31.09,9.45,38.39,1008.39,2035.00,3312.11,3215.04,3492.85,500.36,489.83,28.84,0000 0000 0000 0000 000000
2014-06-22 08:44:42,0.01,0.36,0.00,24.80,28.80,31.12,9.44,38.11,1008.37,2035.00,3311.93,3214.95,3492.15,500.16,489.93,28.88,0000 0000 0000 0000 000000
2014-06-22 08:49:43,0.04,0.36,0.00,24.82,28.83,31.15,9.40,37.88,1008.45,2034.99,3311.12,3214.32,3491.90,500.10,489.68,28.92,0000 0000 0000 0000 000000
2014-06-22 08:54:44,0.02,0.36,0.00,24.86,28.86,31.18,9.36,37.54,1008.42,2034.94,3310.77,3214.00,3491.12,499.77,489.53,28.96,0000 0000 0000 0000 000000
2014-06-22 08:59:45,0.01,0.36,0.00,24.88,28.89,31.21,9.36,37.62,1008.37,2034.90,3310.08,3213.84,3490.99,500.02,489.68,29.00,0000 0000 0000 0000 000000
2014-06-22 09:04:46,-0.03,0.36,0.00,24.90,28.92,31.24,9.41,37.63,1008.41,2034.36,3309.78,3213.08,3490.23,499.67,489.39,29.05,0000 0000 0000 0000 000000
2014-06-22 09:09:47,0.01,0.36,0.00,24.95,28.95,31.27,9.37,37.79,1008.37,2034.12,3309.06,3212.87,3489.89,499.74,489.24,29.09,0000 0000 0000 0000 000000
2014-06-22 09:14:48,0.04,0.36,0.00,24.98,28.98,31.30,9.40,37.83,1008.37,2034.01,3308.37,3212.11,3489.11,500.15,489.56,29.13,0000 0000 0000 0000 000000
2014-06-22 09:19:49,0.02,0.36,0.00,25.00,29.01,31.33,9.43,37.34,1008.36,2034.00,3307.77,3211.97,3488.77,500.14,489.43,29.17,0000 0000 0000 0000 000000
2014-06-22 09:24:51,0.01,0.37,0.00,25.03,29.03,31.35,9.30,37.21,1008.33,2034.00,3307.06,3211.97,3488.07,499.73,489.14,29.21,0000 0000 0000 0000 000000
2014-06-22 09:29:52,0.03,0.37,0.00,25.04,29.06,31.38,9.31,37.13,1008.33,2034.00,3306.74,3211.40,3487.88,499.93,489.07,29.25,0000 0000 0000 0000 000000
2014-06-22 09:34:53,0.02,0.37,0.00,25.06,29.09,31.41,9.43,37.38,1008.32,2034.00,3306.03,3210.97,3487.09,500.01,489.25,29.30,0000 0000 0000 0000 000000
2014-06-22 09:39:54,0.05,0.37,0.00,25.07,29.12,31.44,9.34,37.27,1008.32,2033.96,3305.28,3210.17,3486.42,499.59,488.58,29.34,0000 0000 0000 0000 000000
2014-06-22 09:44:55,0.00,0.37,0.00,25.09,29.15,31.46,9.46,37.29,1008.32,2033.95,3304.96,3209.99,3486.01,500.47,489.74,29.38,0000 0000 0000 0000 000000
2014-06-22 09:49:56,0.03,0.37,0.00,25.11,29.18,31.49,9.43,37.13,1008.32,2033.81,3304.29,3209.54,3485.55,499.80,488.95,29.42,0000 0000 0000 0000 000000
2014-06-22 09:54:58,-0.04,0.37,0.00,25.13,29.21,31.52,9.46,37.17,1008.27,2033.23,3303.88,3209.02,3485.01,500.55,489.64,29.46,0000 0000 0000 0000 000000
2014-06-22 09:59:59,0.01,0.37,0.00,25.16,29.23,31.55,9.38,37.21,1008.24,2033.05,3303.21,3208.87,3484.56,500.10,489.16,29.51,0000 0000 0000 0000 000000
2014-06-22 10:05:00,0.07,0.37,0.00,25.19,29.26,31.57,9.49,37.18,1008.06,2033.02,3302.24,3207.88,3483.67,500.07,488.81,29.55,0000 0000 0000 0000 000000
2014-06-22 10:10:01,0.08,0.38,0.00,25.20,29.29,31.59,9.34,37.18,1007.96,2033.00,3300.81,3206.69,3482.49,499.64,488.39,29.59,0000 0000 0000 0000 000000
2014-06-22 10:15:02,0.13,0.38,0.00,25.22,29.31,31.63,9.47,37.07,1007.93,2032.99,3298.60,3205.12,3480.79,500.28,489.03,29.63,0000 0000 0000 0000 000000
2014-06-22 10:20:04,0.29,0.39,0.00,25.24,29.34,31.65,9.37,37.13,1008.03,2032.98,3293.84,3201.72,3477.18,499.96,488.83,29.67,0000 0000 0000 0000 000000
2014-06-22 10:25:05,0.33,0.41,0.00,25.26,29.37,31.68,9.34,37.13,1007.99,2032.93,3287.53,3197.17,3472.33,499.60,488.19,29.72,0000 0000 0000 0000 000000
2014-06-22 10:30:06,0.22,0.42,0.00,25.28,29.40,31.71,9.39,37.32,1007.93,2032.81,3282.78,3193.80,3468.73,500.36,489.10,29.76,0000 0000 0000 0000 000000
2014-06-22 10:35:07,0.19,0.42,0.00,25.30,29.42,31.73,9.52,37.28,1007.88,2032.42,3278.61,3190.77,3465.51,500.12,488.79,29.80,0000 0000 0000 0000 000000
2014-06-22 10:40:09,0.18,0.43,0.00,25.33,29.45,31.76,9.40,37.38,1007.87,2032.22,3274.70,3188.00,3462.62,500.18,488.81,29.84,0000 0000 0000 0000 000000
2014-06-22 10:45:10,0.23,0.44,0.00,25.36,29.47,31.78,9.44,37.35,1007.88,2032.01,3270.18,3184.76,3459.19,499.89,488.46,29.88,0000 0000 0000 0000 000000
2014-06-22 10:50:11,0.14,0.45,0.00,25.36,29.50,31.81,9.38,37.28,1007.86,2032.00,3267.26,3182.65,3456.98,499.77,488.45,29.93,0000 0000 0000 0000 000000
2014-06-22 10:55:12,0.09,0.45,0.00,25.38,29.52,31.84,9.46,37.33,1007.84,2032.00,3265.40,3181.48,3455.71,500.40,488.90,29.97,0000 0000 0000 0000 000000
2014-06-22 11:00:13,0.09,0.46,0.00,25.40,29.55,31.86,9.39,37.30,1007.84,2031.99,3263.59,3180.20,3454.46,499.83,488.34,30.01,0000 0000 0000 0000 000000
2014-06-22 11:05:14,0.08,0.46,0.00,25.41,29.57,31.88,9.49,37.33,1007.84,2031.98,3261.89,3179.01,3453.23,500.45,488.84,30.05,0000 0000 0000 0000 000000
2014-06-22 11:10:15,0.10,0.47,0.00,25.41,29.59,31.91,9.38,37.27,1007.83,2031.92,3259.87,3177.71,3451.79,499.88,488.29,30.09,0000 0000 0000 0000 000000
2014-06-22 11:15:16,0.08,0.47,0.00,25.42,29.61,31.93,9.42,37.24,1007.83,2031.68,3257.86,3176.43,3450.39,499.79,488.08,30.14,0000 0000 0000 0000 000000
2014-06-22 11:20:18,-0.00,0.47,0.00,25.44,29.63,31.95,9.40,37.21,1007.83,2031.19,3256.66,3175.40,3449.41,500.13,488.50,30.18,0000 0000 0000 0000 000000
2014-06-22 11:25:19,-0.00,0.47,0.00,25.45,29.65,31.97,9.43,37.39,1007.83,2031.02,3256.02,3174.99,3448.98,499.99,488.44,30.22,0000 0000 0000 0000 000000
2014-06-22 11:30:20,0.06,0.47,0.00,25.46,29.67,31.99,9.45,38.67,1007.83,2031.00,3255.31,3174.19,3448.22,500.12,488.55,30.26,0000 0000 0000 0000 000000
2014-06-22 11:35:21,0.00,0.47,0.00,25.48,29.68,32.00,9.38,38.65,1007.83,2030.99,3254.96,3173.97,3447.97,499.68,488.19,30.30,0000 0000 0000 0000 000000
2014-06-22 11:40:22,0.05,0.47,0.00,25.47,29.70,32.02,9.37,38.49,1007.83,2030.97,3254.15,3173.50,3447.43,500.02,488.51,30.34,0000 0000 0000 0000 000000
2014-06-22 11:45:23,0.08,0.48,0.00,25.48,29.72,32.04,9.33,38.49,1007.83,2030.96,3252.61,3172.49,3446.38,499.60,487.93,30.39,0000 0000 0000 0000 000000
2014-06-22 11:50:25,-0.06,0.48,0.00,25.47,29.73,32.06,9.38,38.47,1007.83,2030.62,3252.02,3172.01,3445.97,499.85,488.09,30.43,0000 0000 0000 0000 000000
2014-06-22 11:55:26,0.03,0.48,0.00,25.50,29.75,32.08,9.34,38.47,1007.83,2030.24,3251.55,3171.76,3445.32,499.99,488.17,30.47,0000 0000 0000 0000 000000
2014-06-22 12:00:27,0.01,0.48,0.00,25.52,29.76,32.10,9.46,38.46,1007.83,2030.13,3251.02,3171.07,3444.99,500.33,488.41,30.51,0000 0000 0000 0000 000000
2014-06-22 12:05:29,0.02,0.48,0.00,25.53,29.77,32.11,9.50,38.42,1007.80,2030.02,3250.67,3170.97,3444.39,500.39,488.63,30.55,0000 0000 0000 0000 000000
2014-06-22 12:10:30,0.04,0.48,0.00,25.52,29.78,32.13,9.45,38.41,1007.73,2030.00,3249.86,3170.32,3443.99,499.80,488.05,30.60,0000 0000 0000 0000 000000
2014-06-22 12:15:31,0.02,0.48,0.00,25.53,29.80,32.14,9.38,38.42,1007.61,2030.00,3249.26,3169.99,3443.51,500.29,488.57,30.64,0000 0000 0000 0000 000000
2014-06-22 12:20:32,0.02,0.48,0.00,25.55,29.81,32.15,9.27,38.29,1007.40,2030.00,3248.94,3169.71,3443.01,499.58,487.45,30.68,0000 0000 0000 0000 000000
2014-06-22 12:25:33,0.04,0.48,0.00,25.56,29.82,32.17,9.38,38.37,1007.38,2030.00,3248.13,3169.06,3442.51,499.77,487.80,30.72,0000 0000 0000 0000 000000
2014-06-22 12:30:34,0.00,0.49,0.00,25.57,29.83,32.18,9.35,38.20,1007.36,2029.98,3247.99,3168.98,3442.02,500.01,487.89,30.76,0000 0000 0000 0000 000000
2014-06-22 12:35:35,-0.01,0.49,0.00,25.57,29.85,32.20,9.42,38.49,1007.34,2029.83,3248.00,3168.95,3442.00,500.34,488.32,30.81,0000 0000 0000 0000 000000
2014-06-22 12:40:36,-0.06,0.48,0.00,25.56,29.85,32.20,9.32,38.61,1007.34,2029.25,3247.99,3168.45,3441.97,499.67,487.50,30.85,0000 0000 0000 0000 000000
2014-06-22 12:45:38,0.01,0.48,0.00,25.54,29.86,32.22,9.37,38.50,1007.34,2029.08,3247.65,3168.07,3441.65,499.92,487.90,30.89,0000 0000 0000 0000 000000
2014-06-22 12:50:39,0.01,0.48,0.00,25.53,29.87,32.23,9.47,38.52,1007.32,2029.03,3247.16,3168.01,3441.32,500.31,488.29,30.93,0000 0000 0000 0000 000000
2014-06-22 12:55:40,0.00,0.48,0.00,25.54,29.87,32.24,9.36,38.47,1007.20,2029.05,3247.01,3168.00,3441.08,499.90,487.68,30.97,0000 0000 0000 0000 000000
2014-06-22 13:00:41,0.00,0.48,0.00,25.55,29.87,32.25,9.28,38.46,1006.96,2029.02,3246.99,3168.00,3441.01,499.82,487.47,31.01,0000 0000 0000 0000 000000